Pompano Beach, FL

2:16 AM EDT on July 21, 2017 (GMT -0400)
Pompano Beach

Weather History for KPMP - July, 2013

Change the Weather History Date:

Monday, July 15, 2013

  Actual Average Record
Temperature  
Mean Temperature 78 °F -  
Max Temperature 86 °F 91 °F 100 °F (1981)
Min Temperature 73 °F 74 °F 62 °F (1950)
Cooling Degree Days 14    
Growing Degree Days 28 (Base 50)    
Moisture  
Dew Point 74 °F    
Average Humidity 83    
Maximum Humidity 100    
Minimum Humidity 65    
Precipitation  
Precipitation 0.07 in - - ()
Sea Level Pressure  
Sea Level Pressure 30.07 in    
Wind  
Wind Speed 5 mph (East)    
Max Wind Speed 15 mph    
Max Gust Speed 21 mph    
Visibility 10 miles    
Events Rain    
Averages and records for this station are not official NWS values.
T = Trace of Precipitation, MM = Missing Value Source: NWS Daily Summary

Daily Weather History Graph

Daily Weather History Graph

Search for Another Location

Airport or City:

Trip Planner

Search our weather history database for the weather conditions in past years. The results will help you decide how hot, cold, wet, or windy it might be!

Date:

Astronomy

Jul. 15, 2013 Rise Set
Actual Time 6:37 AM EDT 8:15 PM EDT
Civil Twilight 6:12 AM EDT 8:40 PM EDT
Nautical Twilight 5:41 AM EDT 9:11 PM EDT
Astronomical Twilight 5:09 AM EDT 9:43 PM EDT
Moon 1:08 PM EDT (7/15) 12:10 AM EDT (7/15)
Length of Visible Light 14h 28m
Length of Day
13h 37m
Waxing Crescent, 45% of the Moon is Illuminated
Jul 15
Waxing Crescent
Jul 15
First Quarter
Jul 22
Full
Jul 29
Last Quarter
Aug 6
New

Hourly Weather History & Observations

Time (EDT) Temp. Heat Index Dew Point Humidity Pressure Visibility Wind Dir Wind Speed Gust Speed Precip Events Conditions
12:53 AM 75.0 °F - 75.0 °F 100% 30.09 in 10.0 mi ENE 3.5 mph - 0.03 in Rain Light Rain
1:53 AM 75.0 °F - 75.0 °F 100% 30.08 in 10.0 mi Calm Calm - 0.01 in   Mostly Cloudy
2:53 AM 73.9 °F - 73.9 °F 100% 30.08 in 10.0 mi NE 5.8 mph - 0.00 in Rain Light Rain
3:53 AM 73.9 °F - 73.9 °F 100% 30.06 in 10.0 mi Calm Calm - 0.01 in Rain Light Rain
4:53 AM 73.9 °F - 73.9 °F 100% 30.05 in 10.0 mi Calm Calm - 0.00 in   Partly Cloudy
5:53 AM 75.0 °F - 73.9 °F 96% 30.04 in 10.0 mi ENE 5.8 mph - 0.01 in Rain Light Rain
6:53 AM 73.9 °F - 73.9 °F 100% 30.06 in 10.0 mi Calm Calm - 0.01 in   Partly Cloudy
7:53 AM 78.1 °F - 75.9 °F 93% 30.08 in 10.0 mi Calm Calm - N/A   Mostly Cloudy
8:53 AM 81.0 °F 88.6 °F 78.1 °F 91% 30.09 in 10.0 mi Calm Calm - N/A   Partly Cloudy
9:53 AM 82.9 °F 90.8 °F 75.9 °F 79% 30.09 in 10.0 mi ENE 9.2 mph - N/A   Partly Cloudy
10:53 AM 82.9 °F 89.4 °F 73.9 °F 74% 30.09 in 10.0 mi East 10.4 mph - N/A   Mostly Cloudy
11:53 AM 84.0 °F 89.6 °F 72.0 °F 67% 30.10 in 10.0 mi ENE 6.9 mph - N/A   Mostly Cloudy
12:53 PM 84.0 °F 89.6 °F 72.0 °F 67% 30.09 in 10.0 mi ENE 9.2 mph - N/A   Mostly Cloudy
1:53 PM 84.9 °F 90.7 °F 72.0 °F 65% 30.07 in 10.0 mi ESE 8.1 mph - N/A   Clear
2:53 PM 82.9 °F 89.4 °F 73.9 °F 74% 30.05 in 10.0 mi ENE 8.1 mph - N/A   Mostly Cloudy
3:53 PM 84.9 °F 91.4 °F 73.0 °F 67% 30.05 in 10.0 mi East 12.7 mph 17.3 mph N/A   Partly Cloudy
4:53 PM 82.9 °F 88.8 °F 73.0 °F 72% 30.04 in 10.0 mi East 10.4 mph - 0.00 in   Scattered Clouds
5:53 PM 81.0 °F 85.8 °F 73.0 °F 77% 30.02 in 10.0 mi East 8.1 mph - N/A   Clear
6:53 PM 81.0 °F 85.8 °F 73.0 °F 77% 30.04 in 10.0 mi East 8.1 mph - N/A   Clear
7:53 PM 81.0 °F 86.7 °F 75.0 °F 82% 30.04 in 10.0 mi East 11.5 mph - N/A   Clear
8:53 PM 81.0 °F 84.9 °F 71.1 °F 72% 30.06 in 10.0 mi East 13.8 mph - N/A   Partly Cloudy
9:53 PM 81.0 °F 86.2 °F 73.9 °F 79% 30.08 in 10.0 mi East 11.5 mph - N/A   Partly Cloudy
10:53 PM 80.1 °F 84.5 °F 73.9 °F 81% 30.09 in 10.0 mi East 12.7 mph - N/A   Partly Cloudy
11:53 PM 80.1 °F 84.2 °F 73.0 °F 79% 30.10 in 10.0 mi ESE 15.0 mph 20.7 mph N/A   Clear